• In Belgien
  • Länderverzeichnis
  • Für 7 Tage
  • Wassertemperatur
  • Satellitenkarten
  • Wetterkarte
  • Widgets
  • user-avatar
    Anmelden

    Stündliche Wetter Constantine

    Heute, 16 Juli, Montag

    Zeit Temperatur Niederschläge Wind Luftdruck Luftfeuchtigkeit
    00:00 +32°C° 0 mm 2 m/S 710 mmHg 28%
    01:00 +32°C° 0 mm 2 m/S 710 mmHg 30%
    02:00 +31°C° 0 mm 2 m/S 710 mmHg 32%
    03:00 +31°C° 0 mm 2 m/S 710 mmHg 34%
    04:00 +30°C° 0 mm 2 m/S 710 mmHg 40%
    05:00 +29°C° 0 mm 3 m/S 710 mmHg 46%
    06:00 +29°C° 0 mm 3 m/S 711 mmHg 52%
    07:00 +30°C° 0 mm 3 m/S 711 mmHg 46%
    08:00 +31°C° 0 mm 3 m/S 712 mmHg 40%
    09:00 +33°C° 0 mm 3 m/S 712 mmHg 35%
    10:00 +34°C° 0 mm 3 m/S 712 mmHg 31%
    11:00 +35°C° 0 mm 3 m/S 712 mmHg 28%
    12:00 +37°C° 0 mm 3 m/S 712 mmHg 24%
    13:00 +37°C° 0 mm 4 m/S 712 mmHg 24%
    14:00 +37°C° 0 mm 4 m/S 712 mmHg 24%
    15:00 +37°C° 0 mm 5 m/S 712 mmHg 24%
    16:00 +35°C° 0 mm 5 m/S 712 mmHg 29%
    17:00 +33°C° 0 mm 5 m/S 712 mmHg 34%
    18:00 +30°C° 0 mm 4 m/S 711 mmHg 39%
    19:00 +29°C° 0 mm 4 m/S 712 mmHg 42%
    20:00 +28°C° 0 mm 3 m/S 712 mmHg 45%
    21:00 +26°C° 0 mm 2 m/S 713 mmHg 48%
    22:00 +26°C° 0 mm 2 m/S 712 mmHg 47%
    23:00 +26°C° 0 mm 1 m/S 712 mmHg 47%

    Morgen, 17 Juli, Dienstag

    Zeit Temperatur Niederschläge Wind Luftdruck Luftfeuchtigkeit
    00:00 +25°C° 0 mm 1 m/S 712 mmHg 47%
    01:00 +25°C° 0 mm 1 m/S 712 mmHg 47%
    02:00 +24°C° 0 mm 1 m/S 712 mmHg 47%
    03:00 +24°C° 0 mm 1 m/S 711 mmHg 46%
    04:00 +24°C° 0 mm 1 m/S 711 mmHg 44%
    05:00 +24°C° 0 mm 1 m/S 712 mmHg 42%
    06:00 +25°C° 0 mm 1 m/S 712 mmHg 40%
    07:00 +26°C° 0 mm 1 m/S 712 mmHg 35%
    08:00 +28°C° 0 mm 1 m/S 713 mmHg 31%
    09:00 +30°C° 0 mm 2 m/S 713 mmHg 27%
    10:00 +31°C° 0 mm 2 m/S 713 mmHg 24%
    11:00 +34°C° 0 mm 2 m/S 713 mmHg 22%
    12:00 +35°C° 0 mm 2 m/S 713 mmHg 20%
    13:00 +36°C° 0 mm 3 m/S 713 mmHg 20%
    14:00 +36°C° 0 mm 3 m/S 712 mmHg 20%
    15:00 +37°C° 0 mm 4 m/S 712 mmHg 20%
    16:00 +36°C° 0 mm 4 m/S 712 mmHg 24%
    17:00 +34°C° 0 mm 4 m/S 712 mmHg 28%
    18:00 +33°C° 0 mm 4 m/S 711 mmHg 32%
    19:00 +31°C° 0 mm 3 m/S 711 mmHg 37%
    20:00 +29°C° 0 mm 2 m/S 712 mmHg 41%
    21:00 +28°C° 0 mm 2 m/S 712 mmHg 46%
    22:00 +27°C° 0 mm 2 m/S 711 mmHg 47%
    23:00 +27°C° 0 mm 1 m/S 711 mmHg 47%

    übermorgen, 18 Juli, Mittwoch

    Zeit Temperatur Niederschläge Wind Luftdruck Luftfeuchtigkeit
    00:00 +27°C° 0 mm 1 m/S 711 mmHg 48%
    01:00 +26°C° 0 mm 1 m/S 710 mmHg 48%
    02:00 +26°C° 0 mm 1 m/S 710 mmHg 49%
    03:00 +26°C° 0 mm 1 m/S 710 mmHg 49%
    04:00 +27°C° 0 mm 1 m/S 710 mmHg 47%
    05:00 +27°C° 0 mm 1 m/S 710 mmHg 45%
    06:00 +28°C° 0 mm 1 m/S 710 mmHg 43%
    07:00 +30°C° 0 mm 1 m/S 711 mmHg 37%
    08:00 +32°C° 0 mm 1 m/S 711 mmHg 32%
    09:00 +35°C° 0 mm 1 m/S 711 mmHg 26%
    10:00 +38°C° 0 mm 2 m/S 711 mmHg 23%
    11:00 +40°C° 0 mm 2 m/S 711 mmHg 20%
    12:00 +43°C° 0 mm 3 m/S 711 mmHg 17%
    13:00 +43°C° 0 mm 4 m/S 711 mmHg 17%
    14:00 +43°C° 0 mm 5 m/S 711 mmHg 16%
    15:00 +43°C° 0 mm 5 m/S 710 mmHg 16%
    16:00 +42°C° 0 mm 5 m/S 710 mmHg 19%
    17:00 +40°C° 0 mm 4 m/S 710 mmHg 23%
    18:00 +38°C° 0 mm 3 m/S 709 mmHg 26%
    19:00 +36°C° 0 mm 3 m/S 710 mmHg 29%
    20:00 +35°C° 0 mm 2 m/S 710 mmHg 33%
    21:00 +32°C° 0 mm 2 m/S 710 mmHg 36%
    22:00 +32°C° 0 mm 1 m/S 710 mmHg 36%
    23:00 +31°C° 0 mm 1 m/S 709 mmHg 36%

    19 Juli, Donnerstag

    Zeit Temperatur Niederschläge Wind Luftdruck Luftfeuchtigkeit
    00:00 +31°C° 0 mm 1 m/S 709 mmHg 37%
    01:00 +31°C° 0 mm 1 m/S 709 mmHg 37%
    02:00 +31°C° 0 mm 1 m/S 709 mmHg 37%
    03:00 +28°C° 0 mm 0 m/S 709 mmHg 37%
    04:00 +31°C° 0 mm 1 m/S 709 mmHg 37%
    05:00 +31°C° 0 mm 1 m/S 709 mmHg 36%
    06:00 +32°C° 0 mm 1 m/S 710 mmHg 36%
    07:00 +33°C° 0 mm 1 m/S 710 mmHg 33%
    08:00 +35°C° 0 mm 1 m/S 710 mmHg 30%
    09:00 +36°C° 0 mm 1 m/S 711 mmHg 27%
    10:00 +38°C° 0 mm 2 m/S 711 mmHg 25%
    11:00 +39°C° 0 mm 2 m/S 711 mmHg 23%
    12:00 +40°C° 0 mm 3 m/S 711 mmHg 21%
    13:00 +40°C° 0 mm 3 m/S 711 mmHg 21%
    14:00 +40°C° 0 mm 3 m/S 711 mmHg 21%
    15:00 +41°C° 0 mm 4 m/S 711 mmHg 22%
    16:00 +40°C° 0 mm 4 m/S 710 mmHg 26%
    17:00 +37°C° 0 mm 4 m/S 710 mmHg 29%
    18:00 +36°C° 0 mm 4 m/S 710 mmHg 33%
    19:00 +35°C° 0 mm 3 m/S 710 mmHg 36%
    20:00 +32°C° 0 mm 2 m/S 710 mmHg 38%
    21:00 +31°C° 0 mm 1 m/S 711 mmHg 41%
    22:00 +31°C° 0 mm 1 m/S 710 mmHg 42%
    23:00 +30°C° 0 mm 1 m/S 710 mmHg 42%

    20 Juli, Freitag

    Zeit Temperatur Niederschläge Wind Luftdruck Luftfeuchtigkeit
    00:00 +30°C° 0 mm 2 m/S 710 mmHg 43%
    01:00 +30°C° 0 mm 2 m/S 710 mmHg 42%
    02:00 +30°C° 0 mm 1 m/S 709 mmHg 40%
    03:00 +30°C° 0 mm 1 m/S 709 mmHg 39%
    04:00 +30°C° 0 mm 1 m/S 709 mmHg 39%
    05:00 +30°C° 0 mm 1 m/S 710 mmHg 39%
    06:00 +30°C° 0 mm 2 m/S 710 mmHg 40%
    07:00 +31°C° 0,1 mm 2 m/S 710 mmHg 35%
    08:00 +34°C° 0,1 mm 2 m/S 711 mmHg 31%
    09:00 +36°C° 0,1 mm 2 m/S 711 mmHg 27%
    10:00 +36°C° 0 mm 1 m/S 711 mmHg 24%
    11:00 +39°C° 0 mm 1 m/S 711 mmHg 22%
    12:00 +40°C° 0 mm 1 m/S 711 mmHg 20%
    13:00 +40°C° 0 mm 2 m/S 711 mmHg 20%
    14:00 +40°C° 0 mm 3 m/S 711 mmHg 20%
    15:00 +42°C° 0 mm 4 m/S 710 mmHg 20%
    16:00 +40°C° 0 mm 4 m/S 710 mmHg 24%
    17:00 +37°C° 0 mm 4 m/S 710 mmHg 27%
    18:00 +36°C° 0 mm 4 m/S 710 mmHg 31%
    19:00 +35°C° 0 mm 3 m/S 710 mmHg 33%
    20:00 +34°C° 0 mm 2 m/S 711 mmHg 35%
    21:00 +31°C° 0 mm 1 m/S 711 mmHg 37%
    22:00 +31°C° 0 mm 1 m/S 711 mmHg 38%
    23:00 +31°C° 0 mm 1 m/S 710 mmHg 39%

    21 Juli, Samstag

    Zeit Temperatur Niederschläge Wind Luftdruck Luftfeuchtigkeit
    00:00 +30°C° 0 mm 1 m/S 710 mmHg 40%
    01:00 +30°C° 0 mm 1 m/S 710 mmHg 41%
    02:00 +30°C° 0 mm 1 m/S 710 mmHg 42%
    03:00 +29°C° 0 mm 1 m/S 710 mmHg 42%
    04:00 +29°C° 0,1 mm 1 m/S 710 mmHg 42%
    05:00 +30°C° 0,1 mm 2 m/S 710 mmHg 42%
    06:00 +30°C° 0,1 mm 2 m/S 710 mmHg 42%
    07:00 +32°C° 0 mm 2 m/S 710 mmHg 36%
    08:00 +36°C° 0 mm 3 m/S 710 mmHg 29%
    09:00 +38°C° 0 mm 3 m/S 711 mmHg 23%
    10:00 +39°C° 0 mm 3 m/S 710 mmHg 21%
    11:00 +42°C° 0 mm 3 m/S 710 mmHg 19%
    12:00 +43°C° 0 mm 4 m/S 710 mmHg 17%
    13:00 +43°C° 0 mm 4 m/S 710 mmHg 18%
    14:00 +42°C° 0 mm 5 m/S 710 mmHg 20%
    15:00 +42°C° 0 mm 6 m/S 710 mmHg 21%
    16:00 +40°C° 0 mm 5 m/S 710 mmHg 26%
    17:00 +37°C° 0 mm 4 m/S 709 mmHg 32%
    18:00 +35°C° 0 mm 3 m/S 709 mmHg 37%
    19:00 +34°C° 0 mm 2 m/S 710 mmHg 40%
    20:00 +32°C° 0 mm 2 m/S 710 mmHg 42%
    21:00 +31°C° 0 mm 2 m/S 710 mmHg 45%
    22:00 +31°C° 0 mm 2 m/S 710 mmHg 46%
    23:00 +30°C° 0 mm 1 m/S 709 mmHg 47%
    Mehr zeigen